User: anonymous   Login
Location: Unspecified
(0.0000°N, 0.0000°E)
Time: 19:23:18
(UTC+00:00)
Language:

NNS O-32 - Orbit

View from above orbital plane
View from above orbital plane
View from above satellite
View from above satellite

Ground track
Ground track

The orbit data is extracted from the following two-line orbital elements,

1 19071U 88033B   18171.23295569  .00000064  00000-0  11516-3 0  9996
2 19071  90.3702 286.5626 0187947 205.9185 224.0185 13.27611893460487
Epoch (UTC): 20 June 2018 05:35:27
Eccentricity: 0.0187947
inclination: 90.3702°
perigee height: 1014 km
apogee height: 1297 km
right ascension of ascending node: 286.5626°
argument of perigee: 205.9185°
revolutions per day: 13.27611893
mean anomaly at epoch: 224.0185°
orbit number at epoch: 46048

The dashed part of the orbit path shows where the satellite is in the earth's shadow,  

DLR